Theta_e
349 350 350 351 350 350 351 351 352 353 353 352 351 351 352 352 350 347 344 344 344 344 344 346 348 348 349 348 347 346 347 350 352 352 349 347 347 349 350 350 350 351 350 349 348 347 346 345 345 344 345 346 346 347 347 346 346 347 347 346 346 342 335 330 327 329 331 331 334 335 334 335 334 333 333 336 338 336 337 339 337 336 334 332 331
349 350 350 351 350 349 350 351 351 352 352 352 352 351 352 353 352 349 348 347 347 345 344 345 346 346 345 344 342 342 345 348 350 350 349 349 349 349 348 348 349 349 349 349 349 349 347 345 345 345 346 346 347 346 345 345 346 346 346 346 342 333 325 327 329 334 337 336 335 335 336 336 335 336 336 338 338 336 337 338 336 334 332 330 329
348 349 350 350 349 349 350 351 350 351 351 352 352 351 351 352 352 352 351 350 350 349 346 344 344 344 342 341 340 341 343 346 347 349 349 350 351 349 347 347 348 349 349 350 350 349 348 346 345 345 346 346 346 345 344 344 344 345 345 342 334 327 328 332 333 334 338 339 337 337 338 336 336 337 337 339 339 337 337 337 334 333 331 328 328
348 349 349 349 349 349 349 350 350 350 351 351 352 351 351 351 351 352 352 351 351 351 349 345 343 344 344 342 340 341 343 345 347 348 348 349 350 350 348 346 347 349 350 350 350 349 348 347 346 345 345 345 345 344 342 342 342 342 340 333 327 329 334 337 336 335 335 338 338 337 338 339 338 339 339 337 338 338 336 335 333 331 330 328 328
348 348 349 349 349 349 350 350 350 350 350 351 351 351 351 351 350 351 352 352 351 351 351 349 346 345 346 346 346 345 346 346 345 344 345 347 349 348 347 346 347 350 351 350 350 350 349 349 346 344 344 345 344 341 340 339 338 336 330 326 328 334 337 338 337 335 333 335 337 337 339 340 340 339 338 335 335 337 336 333 332 330 329 329 327
347 348 348 348 348 349 350 350 350 350 350 350 350 351 351 351 351 351 352 352 352 351 352 352 350 347 346 346 347 346 346 344 340 338 339 341 344 344 345 347 349 350 351 351 351 350 350 348 345 343 343 342 340 337 337 337 334 330 326 326 330 336 338 337 337 337 334 334 335 336 338 339 339 338 337 335 334 334 334 332 331 330 329 328 327
348 348 347 348 348 349 350 349 350 350 350 350 350 350 351 351 351 351 351 351 352 351 352 352 352 351 349 346 343 342 341 339 337 335 336 338 340 342 345 348 351 352 352 352 351 350 349 348 346 344 341 338 336 333 333 333 331 330 330 330 332 335 338 338 337 337 334 332 331 333 337 338 338 338 337 336 333 333 332 331 331 330 329 328 328
348 348 348 348 348 349 350 350 350 350 350 351 351 350 351 351 351 351 351 351 351 351 352 352 352 351 350 349 344 340 338 337 336 336 337 341 344 344 347 350 352 352 352 352 351 350 348 347 346 343 339 336 333 331 331 331 332 333 334 333 333 334 338 339 337 335 333 331 329 329 336 338 337 337 337 336 335 333 332 331 331 330 328 328 328
347 347 347 347 348 348 349 349 350 350 351 350 350 350 350 351 351 351 351 352 351 351 351 352 352 350 349 348 344 339 337 337 337 336 339 345 348 349 350 351 352 353 352 351 350 349 347 345 344 340 337 335 331 329 331 332 334 335 335 334 332 332 336 338 337 335 333 333 330 329 332 334 336 337 336 335 335 334 332 332 331 330 329 329 328
346 346 346 346 347 347 347 348 349 350 350 350 351 350 350 351 351 352 352 352 352 351 351 351 352 352 349 346 343 339 337 337 338 339 342 347 350 351 351 351 352 353 353 350 348 347 346 343 341 338 335 331 328 329 331 332 334 334 334 335 333 330 333 337 335 334 334 334 333 331 330 331 332 335 335 334 333 333 332 331 331 330 329 329 329
345 345 346 346 346 346 346 348 349 350 350 350 351 350 351 351 351 352 352 352 352 351 352 351 352 352 350 346 343 340 338 337 339 342 345 347 349 351 350 350 352 353 351 348 344 344 345 341 338 336 333 329 328 330 330 331 331 332 332 335 335 331 330 333 334 333 332 332 334 333 332 331 331 332 334 333 331 331 331 331 330 330 330 330 330
344 344 345 346 346 347 347 348 349 350 351 351 351 351 351 351 351 352 352 352 352 351 351 351 352 352 350 347 344 341 338 337 339 343 345 346 348 349 349 349 351 351 349 345 342 341 341 339 337 336 333 329 329 330 330 330 331 332 334 335 334 330 327 328 332 333 331 331 334 335 333 333 333 332 333 332 330 329 329 330 331 331 331 332 331
342 343 345 346 347 347 348 348 350 351 351 351 351 351 351 351 351 352 352 352 352 352 352 352 351 351 350 348 344 341 340 338 338 342 345 346 347 348 347 347 349 349 347 344 341 339 338 338 338 336 333 330 328 329 331 332 333 335 336 335 334 332 327 324 326 329 329 329 333 334 334 335 334 332 332 331 330 330 329 330 330 330 330 332 333
341 342 343 345 346 347 348 348 349 350 351 352 351 352 352 352 352 352 352 352 352 351 352 352 352 351 350 348 345 342 341 339 338 341 345 347 347 347 345 345 346 346 344 341 339 339 338 337 338 337 335 332 329 329 332 334 334 335 337 335 334 334 331 325 323 323 325 329 330 330 331 334 332 330 332 331 330 330 330 329 330 330 329 331 332
341 342 342 344 345 346 347 348 349 349 350 351 352 352 352 352 352 352 352 352 352 352 352 352 352 352 351 349 346 343 341 339 338 339 344 347 347 346 344 345 345 344 343 340 338 339 338 337 339 339 336 332 329 330 332 333 334 334 336 335 333 332 331 326 322 320 323 329 330 327 329 331 331 331 332 331 329 330 330 329 329 331 331 332 332
341 342 342 343 343 344 346 347 348 349 349 351 351 352 353 353 353 353 352 352 352 352 352 351 351 352 352 350 347 344 342 340 339 338 341 345 346 345 344 344 345 344 344 341 339 338 338 338 339 339 336 332 329 330 332 332 333 333 333 333 333 332 329 326 323 321 322 327 329 329 331 331 332 333 333 332 331 331 331 331 330 331 332 333 333
342 343 342 343 343 343 345 346 347 348 349 350 351 352 352 352 353 353 353 352 352 352 352 351 351 351 351 351 348 345 343 340 339 338 338 342 345 344 344 344 345 345 344 342 340 339 338 338 340 341 339 333 330 331 333 332 331 332 331 331 331 331 329 326 325 322 320 324 327 331 333 333 334 334 333 333 333 332 332 332 331 332 332 332 332
343 344 343 343 344 344 344 345 346 347 347 348 350 351 352 352 352 353 353 353 352 352 352 352 351 351 351 350 348 345 343 341 339 338 338 340 343 344 344 344 344 345 344 342 340 339 339 339 341 343 341 336 333 332 333 332 331 330 329 328 328 329 328 325 325 323 320 322 326 330 333 334 334 335 334 334 334 333 333 332 332 332 331 332 331
343 344 344 344 344 344 345 345 345 346 347 348 350 351 353 352 352 353 353 352 352 352 353 353 352 351 350 349 347 344 343 342 340 339 338 339 341 342 343 343 343 344 344 342 341 340 339 339 342 344 343 339 335 334 333 331 329 326 325 325 325 326 326 324 324 324 322 323 326 329 332 334 335 335 334 333 333 333 333 333 332 332 332 333 330
344 344 345 345 345 344 345 345 345 346 347 348 350 351 352 353 352 353 353 353 353 353 353 353 353 353 351 350 348 345 343 342 341 340 339 339 340 341 342 342 342 344 344 342 340 340 339 340 342 344 344 340 337 337 335 332 328 324 322 321 321 323 324 322 322 323 323 324 326 328 330 332 334 334 333 333 333 333 333 333 332 332 332 331 328
344 345 345 345 345 345 345 345 346 346 347 349 351 351 352 352 352 353 353 354 354 354 353 353 353 353 352 351 349 347 345 344 342 341 340 338 339 341 342 341 341 343 344 342 340 339 339 341 342 343 344 340 337 338 338 335 330 325 321 319 319 320 321 320 320 321 322 323 324 326 328 330 332 333 334 333 333 333 333 332 331 331 331 328 326
345 345 345 345 346 345 346 346 346 347 348 349 350 351 352 353 353 353 353 354 354 355 354 353 353 353 352 350 349 349 348 345 343 342 341 339 339 340 341 341 341 341 342 342 339 338 339 341 343 344 344 341 339 339 340 339 335 330 324 320 319 318 319 320 320 320 321 322 323 325 327 329 332 333 334 334 334 334 333 332 332 332 332 330 327
345 345 345 346 345 346 347 346 346 347 348 349 350 351 352 352 353 353 354 354 354 355 355 354 353 352 352 350 349 349 350 348 345 342 341 340 339 340 340 341 341 341 342 341 340 338 338 340 342 343 344 343 340 339 341 342 341 337 330 324 320 318 318 319 319 321 321 321 323 325 326 329 332 333 334 335 335 335 334 333 333 333 333 330 327
345 345 346 346 345 347 347 347 348 347 348 350 350 351 352 352 354 353 354 354 355 355 355 354 354 353 352 351 350 350 350 349 346 342 339 339 339 340 340 341 341 341 341 341 340 339 338 339 341 343 344 344 342 341 342 343 343 342 339 334 327 322 319 318 319 321 321 321 323 324 326 329 332 333 335 336 335 335 334 333 333 332 330 329 328
345 345 346 346 345 346 347 348 349 348 349 350 350 352 352 352 354 354 354 355 355 356 355 355 354 354 354 353 351 350 350 349 346 341 337 337 339 340 340 341 341 341 341 341 340 339 338 338 340 342 344 344 344 343 343 344 344 344 344 342 338 331 325 321 320 320 320 321 322 324 327 330 332 333 335 335 335 334 333 332 331 331 329 329 330
344 344 345 346 345 346 346 347 349 349 349 350 350 352 352 352 353 354 355 355 355 355 356 355 355 355 355 354 353 351 349 347 345 339 336 336 339 339 340 341 340 341 341 341 341 340 338 337 338 341 343 344 345 345 344 345 345 345 345 344 343 340 335 328 322 319 319 320 321 324 327 330 331 332 334 334 333 333 332 331 329 329 329 331 331
345 345 345 346 347 346 347 347 348 348 349 350 351 352 352 353 354 354 355 355 355 356 356 356 356 356 356 355 354 351 347 344 342 337 334 335 337 339 339 339 340 341 341 341 341 341 339 337 337 338 340 343 345 346 346 346 346 346 346 345 344 343 341 336 328 321 320 321 322 323 326 329 330 331 333 334 334 334 333 330 327 328 331 332 332
345 345 345 346 346 347 347 347 348 349 349 349 350 351 352 353 353 354 355 356 355 355 356 357 357 357 357 356 354 351 346 342 339 337 335 335 336 338 339 339 340 340 341 341 341 341 340 340 339 338 339 342 345 346 346 347 347 346 346 346 345 344 343 341 335 327 322 321 322 324 326 329 330 330 333 334 334 333 331 328 327 329 332 332 333
345 345 346 347 346 347 347 347 348 348 349 350 350 351 352 353 353 354 354 355 356 356 357 357 357 357 357 356 355 353 348 343 340 339 338 336 336 337 339 341 341 340 340 340 341 342 343 342 341 340 341 342 344 344 345 345 345 345 346 346 346 345 345 344 340 334 326 322 322 323 326 329 331 331 332 334 334 333 330 327 327 331 332 333 333
344 345 345 345 346 346 346 347 347 347 348 349 350 351 352 352 353 354 354 355 356 356 357 357 357 357 356 356 355 354 350 347 343 340 338 337 336 337 339 341 341 340 340 341 343 344 344 344 343 342 342 342 343 342 342 342 342 344 345 346 347 346 346 345 343 338 331 326 324 323 324 329 333 334 334 335 334 333 329 326 326 329 331 333 333
343 345 345 345 346 346 346 346 346 347 348 349 349 350 351 352 353 354 355 356 356 357 357 357 356 356 356 357 356 355 353 349 345 341 339 338 338 338 340 342 342 342 343 344 346 346 345 345 344 342 341 341 341 340 340 341 343 346 347 348 348 348 347 346 345 341 335 330 327 324 324 328 333 335 336 335 333 332 330 326 322 324 329 332 333
343 343 343 345 345 345 346 345 345 347 347 348 349 350 351 353 354 354 355 356 356 356 356 356 356 356 356 357 356 355 354 351 347 344 341 340 341 342 343 343 344 344 345 346 348 348 347 346 345 344 342 341 340 341 342 344 346 348 349 349 349 350 349 347 346 343 338 333 330 327 326 328 331 332 331 329 326 327 329 327 321 321 326 329 329
344 343 344 345 345 345 345 343 344 345 345 346 347 349 351 352 353 354 355 356 356 356 356 356 356 356 356 356 355 356 354 351 349 345 343 344 346 346 345 346 346 346 347 349 349 349 348 348 347 345 344 343 344 345 346 348 349 350 351 352 352 351 350 348 347 345 341 337 332 328 327 328 329 327 325 322 321 323 327 325 321 321 323 324 325
344 345 345 344 345 345 344 343 342 342 341 344 346 348 350 351 353 355 355 356 356 356 356 356 356 356 356 355 355 355 354 352 349 348 349 350 349 347 347 349 350 350 350 350 349 348 348 347 345 345 346 346 348 349 350 351 352 353 354 354 353 352 350 349 347 345 343 340 336 331 328 327 326 325 324 321 320 322 324 322 321 323 324 326 328
344 346 345 345 346 344 343 343 341 340 339 342 345 347 349 352 355 356 356 356 356 356 357 357 356 356 356 355 355 355 354 353 351 351 352 352 350 350 352 353 353 353 352 350 349 348 348 346 346 347 349 351 352 353 353 353 354 355 355 354 353 352 351 349 347 345 343 341 337 333 330 328 327 326 327 326 322 320 321 322 323 325 327 328 329
342 343 342 343 345 344 343 341 339 340 341 343 345 347 349 353 355 355 356 356 357 357 357 356 356 356 356 355 355 355 354 354 353 353 354 353 352 352 354 355 355 354 353 351 350 349 349 348 349 350 352 355 355 355 355 356 356 355 354 353 352 352 351 349 347 346 343 340 338 334 332 331 331 330 330 329 323 319 321 323 324 325 326 327 326
341 342 342 341 342 343 342 340 339 340 342 343 346 347 350 353 355 356 356 356 356 357 356 356 357 356 356 355 355 355 355 354 354 354 354 353 353 352 353 355 354 354 354 352 351 351 351 352 352 354 355 356 356 356 357 356 355 354 353 352 351 350 350 348 347 346 343 340 338 335 334 335 335 332 327 324 320 320 323 323 323 324 325 324 323
344 346 346 344 344 344 341 340 340 342 343 344 345 348 350 352 353 354 355 356 356 356 356 356 356 356 356 356 355 355 355 355 354 354 353 353 353 352 352 352 352 352 352 352 353 354 354 355 355 355 356 356 357 357 356 355 355 353 351 349 349 349 349 347 346 344 341 340 338 337 337 337 334 328 323 320 320 322 324 323 323 323 323 322 321
337 339 342 342 343 343 342 343 343 343 344 345 346 349 350 351 351 351 353 354 355 355 355 356 356 356 357 356 355 356 355 354 354 353 354 354 353 352 351 351 351 352 353 354 356 356 356 356 356 356 356 357 357 357 356 355 353 349 346 346 348 348 348 347 346 343 341 339 338 337 338 336 330 324 322 321 321 323 324 323 322 323 322 321 320
333 333 335 336 336 336 338 343 346 346 347 347 348 349 350 349 349 351 353 354 354 355 355 355 356 356 356 356 356 355 354 354 355 354 354 354 353 353 353 353 354 355 355 357 357 358 358 357 357 357 357 356 356 355 354 352 349 345 345 346 348 348 347 347 346 344 341 339 338 337 336 331 325 323 324 324 324 324 323 323 323 322 321 320 322
345 342 338 336 336 335 335 337 340 344 346 347 349 349 348 348 348 352 354 353 353 354 354 355 357 356 356 356 355 355 354 355 355 356 355 355 354 354 355 355 356 357 358 359 359 358 358 357 357 357 357 356 355 352 350 349 346 345 345 346 347 347 347 346 346 343 340 339 338 337 333 327 323 324 326 325 324 324 323 322 321 320 320 323 326
348 347 343 340 338 338 338 339 340 342 345 347 349 348 345 344 345 349 351 350 352 355 355 356 357 356 355 355 354 354 355 355 356 357 356 355 356 356 357 358 359 359 359 360 359 359 358 358 358 357 357 355 352 350 349 348 347 346 345 346 346 346 345 345 344 342 340 338 335 332 328 324 323 323 324 324 324 324 323 321 320 321 324 326 326
347 347 346 344 343 342 344 345 347 349 352 353 354 354 352 350 350 347 346 348 353 356 357 357 356 355 355 355 353 353 355 355 356 358 357 356 357 359 360 360 360 361 361 360 360 360 359 359 358 357 355 353 349 348 349 347 346 346 346 345 344 344 343 343 343 341 338 334 329 326 324 322 322 322 323 323 323 322 321 322 324 326 326 324 322
350 350 350 350 349 348 349 350 351 352 355 356 357 357 358 359 360 358 357 358 358 358 357 356 355 354 354 354 352 353 354 355 357 358 359 358 358 360 362 362 361 362 361 360 360 360 359 358 357 354 352 349 348 347 347 345 344 345 344 343 342 342 341 342 342 339 334 328 324 323 323 323 323 323 323 322 322 323 325 326 326 325 322 320 319
351 351 354 353 352 350 352 355 356 356 357 358 359 359 360 360 361 361 361 362 361 360 358 356 355 354 353 353 352 353 354 356 358 360 361 360 360 363 363 363 363 363 361 361 361 360 358 356 353 350 348 347 346 345 343 343 343 342 341 340 340 340 339 340 338 334 327 323 323 323 323 323 323 323 322 323 325 327 327 325 323 321 320 319 318
350 350 352 353 353 353 354 357 360 360 360 362 362 362 362 362 361 361 361 362 363 363 361 358 356 353 351 351 352 355 358 361 362 363 363 362 363 364 363 363 363 360 359 360 360 357 355 353 349 347 345 343 342 341 341 341 341 340 339 339 339 338 337 335 331 327 324 323 323 323 323 322 322 322 323 325 328 328 325 321 321 320 319 318 317
350 350 350 350 352 353 353 355 358 360 363 364 365 366 365 363 363 363 362 363 364 364 363 362 359 357 357 358 360 361 363 364 364 364 364 363 363 364 363 364 363 359 356 357 356 353 351 349 346 344 342 340 339 339 339 339 339 338 337 337 336 334 331 329 326 324 324 324 323 322 322 321 321 322 324 328 329 327 322 321 321 320 318 318 318
348 348 349 349 351 352 352 353 355 357 360 362 364 365 365 363 362 363 363 363 361 362 365 366 364 363 363 364 364 364 364 364 363 363 364 364 363 363 363 361 361 359 355 350 348 347 346 344 342 340 339 339 339 338 338 337 337 335 334 334 332 330 327 326 325 324 324 323 322 322 321 320 320 322 326 329 328 324 321 321 321 320 319 318 318
348 348 349 350 351 353 355 354 355 356 356 358 360 360 360 359 358 358 359 360 359 359 363 364 363 364 365 364 364 363 362 363 364 364 365 364 362 361 361 357 355 354 349 342 340 342 341 341 339 338 337 338 337 336 335 335 334 333 332 331 329 327 326 325 324 324 323 322 321 321 320 320 322 325 328 327 324 322 321 322 321 320 320 319 318
347 348 349 350 351 354 356 356 356 356 356 356 356 356 355 355 353 354 355 358 360 360 361 363 363 362 362 361 361 361 363 364 364 363 363 361 359 358 357 353 350 349 345 341 339 339 338 337 337 336 335 335 334 334 334 333 332 332 331 329 327 325 325 324 323 323 322 321 321 321 321 322 326 328 326 323 321 322 322 322 321 321 321 319 319
346 347 347 348 349 352 354 356 357 356 357 357 356 356 356 354 356 359 361 363 364 361 358 357 355 354 356 359 361 361 362 361 359 359 359 357 355 353 352 350 347 345 342 339 337 335 335 335 334 333 334 334 334 334 334 332 332 331 330 328 326 324 323 322 322 322 321 321 321 322 324 327 329 326 322 321 322 323 323 322 322 322 321 321 320
Wind_Speed
44 41 43 43 42 41 40 39 38 37 36 34 34 33 33 33 33 33 32 32 32 33 33 31 29 28 27 27 26 26 24 23 22 22 21 19 18 17 16 16 14 13 12 11 12 12 12 13 12 11 10 9 10 9 9 9 10 10 8 9 9 9 10 10 8 7 8 9 9 8 6 6 5 6 12 13 9 10 12 12 9 4 2 3 4
43 41 42 44 44 42 42 41 40 39 39 37 36 35 35 34 34 33 32 31 31 32 34 34 32 30 29 29 28 26 25 23 23 23 22 21 19 18 17 16 14 13 12 12 12 13 14 14 13 11 9 10 11 10 10 9 9 9 9 10 10 9 9 9 8 8 7 7 9 9 7 8 9 11 13 9 5 10 15 13 9 5 2 3 4
41 42 43 44 45 45 44 44 42 41 40 40 38 35 35 36 35 35 34 33 31 31 34 35 33 31 29 28 27 25 24 23 23 22 22 22 20 19 18 16 15 14 13 13 13 14 15 14 13 11 11 11 11 10 9 10 10 9 10 10 10 9 11 9 8 8 7 8 10 10 9 10 11 11 10 7 5 9 15 14 10 6 2 2 3
43 44 45 45 45 46 47 46 45 43 42 42 41 39 38 38 37 38 37 36 33 31 33 34 33 32 29 27 25 24 24 23 23 22 23 23 22 21 19 18 17 15 15 14 14 14 15 14 13 13 12 11 11 10 10 10 10 10 10 10 11 13 13 10 8 8 8 9 10 10 9 9 9 8 7 7 7 10 15 14 10 6 2 1 2
47 47 46 46 47 49 49 49 46 45 45 44 43 42 41 39 38 39 39 38 36 33 32 32 32 33 32 30 27 26 26 25 25 25 24 25 24 23 22 19 18 17 16 15 14 15 15 15 15 13 12 12 11 11 10 10 10 10 9 10 14 15 13 11 10 8 8 10 10 10 10 7 8 8 7 6 6 12 17 14 9 6 2 1 1
51 50 49 48 48 49 50 49 48 47 47 45 44 44 42 41 39 39 40 40 38 36 34 33 32 33 34 34 33 31 31 30 29 27 26 26 26 25 23 21 18 17 15 15 15 16 15 16 15 13 13 12 12 11 11 11 11 9 8 12 16 14 12 12 12 11 8 9 11 11 10 8 9 11 10 8 8 13 17 13 9 6 3 2 1
50 51 51 50 49 49 50 50 50 50 49 47 45 45 44 42 41 40 40 41 40 38 37 35 34 33 33 34 35 34 33 32 30 27 26 25 25 24 23 21 19 16 15 15 16 16 16 16 15 14 13 12 12 11 11 12 9 8 8 12 14 13 13 13 13 12 10 9 10 12 12 10 10 12 11 12 13 16 16 13 10 9 6 4 2
49 50 51 52 51 51 52 52 51 51 50 48 47 46 45 45 43 42 41 42 42 41 39 38 37 35 33 33 34 34 33 31 28 26 25 23 22 23 22 21 19 17 16 16 17 17 17 17 16 14 13 12 12 11 11 10 9 9 10 10 11 13 14 13 13 13 11 10 10 12 13 12 11 12 12 12 14 15 16 14 13 11 9 7 2
51 52 52 53 53 53 54 53 53 52 50 49 48 47 46 46 45 44 43 43 43 43 41 40 39 37 35 33 33 33 32 29 27 26 24 22 22 22 21 20 19 18 17 18 17 17 17 17 16 14 13 13 12 10 10 11 11 11 11 9 9 13 16 15 14 13 12 11 11 13 14 14 14 12 12 11 12 14 14 14 16 14 12 10 5
51 53 54 54 55 55 55 54 54 53 52 51 49 48 47 47 47 46 45 43 44 44 44 42 41 39 38 36 34 32 32 30 28 26 25 23 23 22 21 20 20 20 19 19 19 19 18 17 16 15 14 12 11 10 11 13 14 12 10 9 8 12 17 18 16 15 14 13 12 13 14 16 16 15 13 12 11 11 10 12 15 15 14 12 8
51 52 53 54 55 55 54 54 54 54 53 52 51 50 49 48 48 48 46 44 44 44 45 44 43 41 40 38 35 33 32 31 30 28 27 26 25 24 22 22 22 21 21 20 20 20 19 18 17 15 12 11 11 11 12 13 14 12 10 10 10 11 15 19 19 17 16 15 14 14 14 14 15 16 16 14 13 12 9 11 14 12 11 10 9
51 51 52 52 53 53 53 54 54 55 54 54 53 52 51 50 50 49 48 46 45 44 45 45 45 44 42 40 37 34 32 32 31 30 29 29 27 26 24 24 24 23 22 22 20 20 20 18 17 15 12 11 12 12 13 13 14 13 11 10 10 11 13 18 22 21 18 16 15 14 14 14 14 14 15 14 13 12 11 11 12 11 9 9 10
51 52 52 52 52 53 53 54 54 54 55 55 54 54 53 52 51 50 49 48 46 45 45 46 46 45 44 42 38 36 34 33 32 31 31 30 29 28 27 27 26 25 25 24 22 21 20 18 16 14 13 12 13 14 14 15 15 14 13 12 12 11 12 17 22 24 21 17 15 15 16 17 16 16 15 13 13 13 13 12 12 11 11 11 10
52 53 52 52 54 55 55 55 55 55 56 56 56 55 54 53 53 51 50 49 48 47 46 46 46 46 45 43 40 37 35 34 33 32 32 31 30 29 28 28 27 26 25 23 22 21 20 18 15 13 13 14 14 15 16 17 16 15 14 14 14 12 11 15 20 23 22 18 17 17 19 19 19 18 17 15 15 16 16 15 14 12 12 13 11
52 53 53 54 55 56 56 56 56 56 57 57 56 56 56 55 54 53 51 49 49 48 47 46 46 46 45 44 41 39 37 35 35 34 33 32 31 30 28 28 27 26 24 22 22 22 20 18 16 14 15 16 16 17 18 19 19 18 17 16 15 13 13 14 17 21 22 21 21 20 20 21 21 20 18 17 17 17 16 16 16 14 13 13 12
50 51 53 54 55 56 56 56 57 57 57 57 57 57 57 56 55 53 51 50 49 49 47 46 45 45 45 45 43 40 38 37 36 35 34 33 32 30 29 29 28 26 25 23 23 22 21 19 17 16 16 16 17 18 20 21 21 20 19 18 17 16 14 14 16 19 21 23 23 22 21 22 21 20 19 17 18 18 16 16 17 16 14 13 12
50 52 53 55 56 56 56 57 57 57 57 58 58 58 58 57 55 54 52 50 49 49 47 45 44 44 44 45 44 42 40 39 38 37 36 35 33 31 30 30 29 27 26 25 24 23 22 21 19 18 17 17 18 20 21 21 21 21 20 19 18 17 15 14 16 19 21 22 25 25 24 23 21 19 19 18 19 19 18 17 17 17 15 14 14
50 53 55 55 56 56 56 57 57 58 58 59 59 59 58 57 55 54 53 52 50 48 47 45 44 43 43 44 45 44 42 40 39 38 36 36 35 33 32 31 30 28 27 26 26 25 24 23 22 20 19 18 18 20 22 21 22 22 22 21 20 18 17 15 16 19 21 23 25 27 26 25 22 20 20 20 20 20 20 19 19 19 18 17 16
48 52 54 55 56 56 57 57 57 58 58 58 58 58 58 56 55 54 53 52 50 47 46 46 44 42 42 42 43 44 43 41 40 39 38 37 37 35 34 33 31 29 28 27 27 27 26 26 24 22 20 20 20 20 22 22 22 23 23 22 21 20 19 17 17 19 21 23 26 28 28 26 24 22 21 21 22 22 22 22 21 20 19 18 17
46 50 53 55 56 57 57 57 57 57 57 57 57 57 57 56 55 54 53 52 50 48 46 45 45 43 41 40 41 43 44 43 41 40 40 39 38 37 35 34 32 31 30 29 28 28 28 27 26 24 22 22 22 21 22 23 24 23 23 22 21 21 21 19 18 19 21 24 26 28 29 27 25 24 22 22 22 23 23 22 21 20 18 17 17
48 50 52 55 57 57 57 57 56 56 56 56 56 56 57 56 56 55 53 52 52 50 47 45 45 44 42 40 40 41 43 43 42 41 41 40 40 38 37 36 34 32 31 30 30 30 29 28 27 26 25 24 24 24 23 24 25 25 24 23 22 22 22 21 21 21 22 24 26 28 28 27 26 26 25 23 23 22 21 21 20 19 17 16 16
49 50 52 54 55 55 55 55 54 54 55 55 56 56 56 56 56 55 54 53 53 51 49 46 45 44 42 40 39 40 42 43 43 42 42 42 41 40 39 38 36 35 33 32 32 31 30 29 28 27 27 27 27 26 26 26 26 26 25 25 24 24 23 23 23 23 24 25 26 27 28 28 27 27 26 25 23 21 21 21 20 19 18 17 16
50 51 53 53 54 54 53 53 52 53 54 54 55 56 56 57 57 56 55 54 53 51 49 48 46 45 42 39 38 39 41 42 43 44 43 43 42 42 40 40 38 36 35 33 33 32 32 31 30 30 29 29 29 29 28 28 27 27 26 26 26 25 25 24 25 25 25 26 27 27 28 29 28 27 26 24 23 22 22 21 21 20 20 19 18
51 52 53 53 53 51 50 50 51 52 53 53 54 55 56 56 56 56 56 54 52 51 50 49 48 47 43 40 38 39 41 42 43 44 44 43 43 43 42 41 40 38 37 35 34 34 33 32 32 33 32 32 31 31 31 30 30 29 27 27 26 25 25 25 26 26 27 28 28 27 28 29 29 29 28 25 23 23 23 22 21 21 21 19 18
49 51 52 50 47 47 48 51 52 53 52 52 53 54 55 55 56 56 55 53 52 51 51 51 50 49 46 43 40 39 41 43 43 44 45 44 44 44 43 42 41 40 39 37 36 36 35 35 35 35 34 33 32 32 32 32 32 31 30 29 27 26 25 26 27 28 29 28 28 28 28 28 29 30 29 27 25 24 23 22 22 22 21 19 18
48 50 48 44 43 45 49 51 51 52 52 51 52 53 54 55 55 54 53 52 52 51 51 51 51 50 49 45 42 41 41 42 43 44 44 45 45 45 45 43 42 41 41 39 38 38 37 37 37 36 35 34 33 32 33 33 33 34 33 31 29 27 26 26 28 30 30 29 29 29 28 27 28 29 29 27 25 23 22 22 22 22 21 19 18
47 47 45 42 42 45 48 50 51 51 51 51 52 53 54 54 54 53 52 52 52 51 51 52 52 52 50 48 45 42 41 42 43 44 45 45 46 46 46 45 44 43 42 42 40 39 39 39 38 38 37 35 34 33 34 34 35 35 36 34 32 30 28 28 29 30 30 30 29 29 29 28 27 27 27 25 24 23 23 22 22 20 19 18 17
44 44 43 43 44 46 47 48 50 50 51 51 51 52 53 54 54 53 52 52 52 52 52 52 52 52 52 50 47 43 41 41 42 44 45 46 47 47 47 46 45 45 44 43 42 41 40 40 39 39 38 37 36 35 35 36 36 36 37 36 34 32 30 30 30 30 30 30 29 28 30 29 28 27 26 25 24 23 23 23 21 20 19 19 18
38 41 43 44 46 47 47 48 48 48 50 51 51 51 52 53 53 53 52 53 53 53 54 53 53 53 52 51 49 46 43 42 43 45 47 48 48 48 48 48 47 46 45 45 44 43 42 41 40 40 39 39 38 38 38 37 37 37 38 37 35 33 32 33 33 31 30 31 30 28 29 30 28 27 26 26 25 24 23 22 21 21 21 20 19
37 41 43 45 46 46 47 48 47 47 48 49 50 51 52 53 53 53 54 54 54 54 54 54 54 54 53 51 50 48 46 45 45 46 47 49 49 49 49 49 48 47 46 46 45 45 43 42 41 41 40 41 40 40 39 38 38 38 38 36 34 33 33 35 36 34 31 30 30 29 29 29 27 26 27 27 25 25 24 22 22 23 23 22 21
42 45 47 47 47 46 46 46 46 45 46 47 48 50 51 53 53 54 54 54 54 55 55 56 55 54 53 52 51 50 49 48 47 47 48 49 50 50 50 51 50 48 47 46 46 45 44 43 42 41 41 41 41 40 39 38 38 38 37 35 33 33 33 34 37 37 33 30 30 31 30 29 27 26 27 27 27 26 24 23 22 24 24 23 22
44 46 46 46 46 46 46 46 46 44 44 45 47 49 51 53 54 55 55 55 55 56 56 56 55 53 53 52 52 52 51 50 49 48 48 49 50 51 51 51 51 49 48 46 46 45 44 43 41 40 40 40 39 38 37 37 37 36 35 33 32 33 34 33 36 39 35 31 31 32 31 29 28 27 27 28 28 27 25 24 23 23 24 23 23
41 43 44 44 46 46 47 47 45 43 43 45 47 50 52 53 55 55 55 55 55 56 56 56 54 53 53 52 52 53 52 51 50 49 49 50 51 52 52 52 51 49 47 46 45 44 43 42 41 40 40 38 36 35 35 35 35 34 32 30 31 34 34 33 36 39 36 33 33 32 31 29 29 29 27 28 30 27 24 23 23 23 24 24 22
36 39 42 44 45 46 46 46 44 42 42 44 47 50 52 53 54 55 54 55 56 56 56 56 55 54 53 52 52 53 53 51 50 50 50 51 52 52 52 51 50 48 47 46 45 43 42 41 40 39 38 36 35 34 34 33 32 31 28 28 30 31 31 33 37 38 36 34 33 32 29 28 28 28 27 27 28 25 22 21 21 22 23 21 20
35 37 40 43 44 44 44 44 45 44 44 46 48 50 51 53 53 53 53 54 55 56 56 56 56 55 54 53 53 53 52 51 50 50 51 51 52 52 51 50 49 48 47 45 43 42 41 40 39 38 37 35 34 34 33 31 30 27 24 25 28 29 31 35 38 37 35 34 33 31 28 26 26 26 26 26 26 22 19 19 19 20 20 19 19
33 34 36 38 42 44 44 45 47 47 47 48 49 50 52 53 53 53 53 54 54 55 56 56 57 56 55 54 54 53 52 51 50 50 50 50 51 51 50 49 48 46 45 44 41 40 39 39 38 37 35 35 35 34 32 29 26 23 21 24 27 30 32 35 36 36 35 34 31 28 25 25 26 25 25 25 23 20 18 18 18 17 18 19 19
36 37 36 36 40 44 46 46 47 48 49 50 50 51 53 53 53 52 52 53 54 55 56 56 57 57 56 55 54 53 52 51 50 50 50 50 49 49 49 48 46 46 45 43 40 39 39 38 37 36 35 35 34 32 30 26 23 21 20 22 25 28 31 33 34 35 35 33 29 25 25 26 24 22 23 23 21 19 18 18 17 18 19 21 21
33 36 38 38 42 47 48 49 48 48 50 49 49 51 53 53 52 52 52 53 54 56 57 57 58 58 58 56 54 53 52 50 50 50 49 49 48 47 47 46 45 45 43 41 39 39 39 37 36 35 34 33 32 30 28 26 23 21 20 21 23 26 29 33 35 35 34 30 26 26 27 26 21 18 20 21 21 19 18 17 17 19 21 23 24
20 25 30 33 37 41 45 49 49 48 48 48 47 48 49 50 49 49 51 53 55 57 57 58 58 59 58 57 55 53 52 51 50 50 49 48 47 46 45 44 43 43 41 39 39 39 38 37 35 34 32 31 30 29 27 25 22 20 20 21 24 26 28 30 33 34 32 28 25 27 26 21 16 17 20 21 22 20 19 17 17 19 22 23 23
11 18 24 28 30 30 34 42 47 49 49 49 47 46 46 47 47 48 51 53 55 56 57 57 58 58 58 57 56 54 53 52 51 50 49 48 46 45 44 44 44 43 40 39 39 38 37 36 34 33 31 30 28 26 24 22 20 20 21 22 24 25 26 27 30 33 32 27 25 25 21 16 16 18 20 22 22 20 19 17 17 19 22 23 23
3 8 15 21 25 27 28 31 36 42 45 46 47 47 46 46 46 48 51 53 54 55 55 56 57 58 57 56 55 55 54 53 52 51 49 48 47 47 46 45 44 42 40 39 39 38 37 35 34 32 30 29 26 24 22 21 19 20 21 21 21 22 23 24 29 32 29 24 21 20 18 16 17 18 19 20 20 19 18 17 18 20 22 22 21
4 2 7 11 15 21 27 29 31 35 40 42 45 49 50 49 49 50 51 52 52 54 56 58 58 58 57 56 55 55 55 53 53 52 51 50 49 48 48 47 45 42 40 40 40 39 37 35 33 31 30 28 25 23 22 21 20 20 21 19 19 19 19 22 28 29 24 19 18 18 16 16 15 16 17 17 16 16 17 17 19 20 19 18 17
4 2 3 6 8 13 21 30 33 35 37 38 40 43 46 47 48 49 50 52 54 55 56 57 57 57 57 56 55 55 55 55 55 54 52 51 51 50 49 47 44 42 41 41 41 40 38 35 33 31 29 26 24 23 22 21 21 21 20 18 18 17 17 21 25 24 20 17 17 16 14 14 14 15 15 15 15 15 16 17 18 17 15 14 15
4 3 1 2 4 6 10 18 26 30 32 33 34 37 40 41 41 42 42 44 49 54 55 55 55 56 56 55 54 54 55 55 55 54 53 53 52 51 50 47 45 43 43 42 41 39 36 34 32 30 28 25 23 22 22 21 21 21 19 18 18 17 17 19 21 20 18 17 16 14 13 13 13 14 14 13 13 13 14 15 14 13 13 13 13
5 3 2 2 2 3 4 7 13 21 27 29 31 34 37 39 40 40 38 36 37 44 50 53 54 55 55 55 54 53 53 55 55 54 55 54 53 51 49 47 45 43 42 41 39 36 34 33 31 28 25 23 22 21 21 21 21 20 19 19 18 18 17 18 19 19 18 18 16 15 14 14 13 13 12 11 11 11 11 12 11 11 10 10 9
9 8 6 5 3 4 5 4 7 14 21 24 28 30 32 34 36 36 37 35 31 34 42 49 52 55 55 54 53 51 50 50 50 50 50 51 51 51 48 44 42 39 38 38 36 34 32 30 27 24 22 21 21 21 22 22 21 21 21 20 19 19 19 20 20 20 20 19 18 16 15 13 12 11 10 10 10 10 11 10 10 9 7 7 7
13 12 11 9 7 6 6 6 7 10 15 19 24 27 30 33 35 34 34 31 24 24 34 42 45 48 49 48 48 49 47 47 47 49 50 49 47 44 41 38 36 34 34 35 34 32 30 27 23 21 20 19 21 22 23 24 24 24 24 22 21 21 21 21 22 21 20 19 17 15 14 13 11 11 11 11 11 11 11 11 9 7 6 6 7
13 12 11 10 10 8 7 8 8 9 13 17 22 27 30 33 35 35 36 34 28 25 30 33 34 38 42 44 46 49 50 51 50 49 48 45 41 37 35 33 32 32 35 35 32 29 27 24 21 20 19 20 23 24 24 25 26 26 26 25 24 23 23 23 23 22 20 19 17 15 14 13 12 12 12 11 11 12 12 11 9 8 7 7 8
13 11 9 8 8 6 6 7 7 9 13 16 19 23 27 30 31 33 36 37 34 32 36 36 34 36 42 46 49 52 53 52 49 44 41 40 37 33 31 31 32 32 32 28 24 22 21 19 17 17 18 20 23 23 22 23 23 23 23 23 24 24 23 23 22 21 19 18 16 16 15 13 13 13 12 11 12 12 12 11 11 10 9 9 10
14 12 9 6 5 5 5 4 5 7 11 14 16 19 21 23 27 30 34 35 36 39 45 48 45 44 47 50 52 53 51 47 44 43 40 38 34 30 29 30 31 28 23 17 14 13 13 14 14 14 15 16 17 19 21 21 21 21 20 20 20 20 21 20 19 18 17 17 16 15 14 13 13 13 13 12 12 11 10 10 11 12 12 12 12
18 15 11 8 7 6 5 3 2 5 8 12 14 16 18 19 21 24 28 34 39 41 42 45 47 48 51 53 51 49 45 40 39 39 37 35 33 31 29 28 25 20 17 14 12 11 11 12 14 16 17 16 16 18 20 21 20 21 20 19 18 18 17 17 17 16 16 16 16 15 14 14 14 14 14 13 11 10 10 10 11 13 15 15 14
Wind_Direction
201 202 204 203 204 205 206 206 206 207 209 210 212 212 210 209 209 209 207 204 202 201 203 203 202 204 206 207 210 210 208 209 214 218 221 223 223 223 224 225 228 228 228 226 229 236 242 245 249 252 248 239 240 242 241 245 242 230 218 202 193 198 211 216 209 178 168 187 197 198 194 179 175 171 178 187 193 197 195 189 188 204 283 330 344
198 201 203 203 204 204 205 206 206 207 208 210 213 212 211 211 211 210 208 207 206 204 204 205 206 207 208 209 210 209 208 209 213 217 220 222 223 224 225 226 228 229 230 229 233 238 242 247 253 255 241 231 237 239 238 239 229 216 203 198 204 210 206 195 179 163 160 179 187 180 169 164 160 160 168 172 177 189 190 191 199 214 272 339 347
196 199 200 202 203 203 203 205 208 209 209 210 212 212 211 212 212 212 210 209 209 208 208 208 209 211 213 213 211 211 211 211 214 217 219 220 223 225 226 227 227 228 227 229 234 237 241 245 249 245 234 230 234 234 229 226 219 209 203 208 211 193 177 171 163 163 169 171 172 170 162 157 159 165 173 175 181 190 190 193 203 211 224 4 357
195 198 199 202 203 202 203 205 208 210 209 210 210 211 211 212 213 213 212 211 210 210 211 212 212 213 217 219 217 216 216 215 217 219 219 220 224 227 230 230 229 229 228 231 235 239 243 244 241 238 235 232 227 225 224 223 219 213 212 212 199 176 164 164 161 170 185 181 176 174 169 167 174 180 180 186 194 196 196 197 204 208 200 21 355
194 196 198 201 203 204 205 206 207 209 210 211 211 211 211 213 214 214 214 213 211 211 212 213 213 214 216 218 220 220 219 220 219 219 219 221 224 228 231 232 232 231 231 234 236 240 243 238 235 236 234 229 223 224 226 224 222 219 219 206 189 175 167 167 160 161 182 193 195 187 178 186 195 176 154 161 181 188 195 201 207 208 214 318 20
196 196 197 200 203 205 206 206 207 208 211 213 214 214 213 214 214 214 215 215 214 212 211 212 213 215 216 216 217 217 218 219 220 220 220 223 227 229 232 233 233 232 231 233 234 237 237 231 232 235 232 227 225 225 222 221 220 214 202 188 183 178 177 179 166 157 170 195 206 201 193 198 192 171 151 146 163 183 192 197 202 208 233 260 165
197 198 197 199 201 203 205 206 207 208 211 214 216 216 216 215 214 215 216 216 216 214 211 211 214 216 218 219 219 218 218 219 220 221 222 224 228 229 229 231 231 231 231 232 233 234 231 228 232 234 229 227 227 225 221 217 209 192 179 177 182 185 188 191 180 172 176 188 197 199 201 204 191 179 166 153 162 182 192 193 194 202 221 228 196
197 198 198 199 201 202 204 207 208 210 212 213 215 216 216 216 216 216 217 217 217 216 213 212 214 217 218 220 221 219 219 221 220 219 220 221 225 226 226 227 228 230 232 233 234 233 230 231 234 232 226 225 227 226 220 205 187 183 185 181 189 195 196 198 194 186 185 186 184 186 194 201 196 187 179 165 161 171 186 197 197 198 213 216 206
198 199 200 200 202 204 206 207 209 211 212 214 216 217 217 217 216 216 217 218 218 218 217 216 216 218 219 219 220 220 220 223 223 220 218 217 220 223 223 225 226 229 231 231 232 232 231 233 233 230 227 226 226 220 207 193 187 194 197 188 194 200 199 202 203 198 193 191 185 182 186 195 199 195 187 180 170 165 177 194 197 197 208 214 213
200 201 202 203 204 206 207 208 209 210 212 216 218 218 218 217 216 215 217 219 220 220 220 219 218 219 220 221 221 220 219 221 223 221 218 216 217 220 221 223 224 227 229 231 233 233 232 233 230 229 227 225 219 206 198 195 197 206 208 199 200 205 203 203 207 210 206 199 191 186 185 190 197 197 192 192 190 181 173 177 190 202 207 210 213
201 202 204 205 206 207 208 209 209 210 211 213 215 217 217 217 217 216 217 219 221 221 221 221 220 220 222 223 223 222 219 217 218 218 218 217 217 219 220 221 222 225 229 233 234 232 231 231 228 225 221 218 212 203 202 203 206 212 212 208 215 218 213 209 209 213 212 206 199 195 189 189 195 198 198 201 202 201 188 168 174 191 201 204 208
200 202 204 205 206 206 207 209 209 209 209 210 212 215 216 217 217 217 217 218 220 221 221 221 222 222 224 226 225 224 221 218 216 216 217 217 218 219 220 220 221 225 228 231 230 227 226 225 222 220 218 215 212 208 208 209 210 211 207 209 222 225 219 213 211 213 215 209 205 206 200 195 198 201 202 205 207 212 214 194 181 187 200 201 195
199 202 204 205 205 206 206 209 209 208 208 209 210 212 214 216 217 218 218 218 219 221 221 222 223 225 227 227 226 224 222 220 217 217 218 219 219 219 221 221 222 224 227 228 226 223 224 222 220 223 225 221 216 211 209 208 209 210 209 216 227 228 220 214 212 214 215 207 204 207 203 198 201 201 200 204 211 217 220 216 208 208 212 205 193
199 201 203 205 206 207 208 209 209 209 209 209 210 210 212 214 216 218 219 219 218 219 221 222 224 227 228 228 227 224 222 221 219 218 219 219 219 221 224 224 224 227 230 230 228 227 227 225 224 229 233 230 221 213 210 212 215 214 214 219 226 228 221 214 213 215 212 200 195 196 195 197 201 200 199 203 209 215 216 217 217 215 214 214 212
199 201 203 205 208 209 209 209 209 210 210 210 210 210 211 212 215 217 218 218 218 218 220 222 224 227 228 228 227 225 223 222 221 221 221 221 221 224 227 227 228 231 234 235 233 231 231 229 225 228 234 232 224 216 213 217 220 217 216 220 224 226 220 212 213 214 210 200 193 193 194 198 201 201 206 208 209 214 217 220 222 219 216 221 224
199 201 203 206 210 211 210 209 210 211 210 210 210 210 211 212 214 216 217 218 218 219 220 222 225 226 227 228 227 225 224 223 221 222 222 223 224 227 229 229 231 233 235 236 233 233 234 231 226 225 230 232 226 219 217 220 222 219 218 221 224 225 220 213 212 214 213 207 201 198 200 203 205 208 214 216 216 220 224 228 229 226 224 228 233
198 201 203 206 210 211 211 210 211 210 210 211 211 211 212 212 213 214 215 217 218 219 220 222 224 226 227 228 227 225 225 223 222 222 222 224 225 228 230 231 231 233 233 233 232 232 233 232 229 226 228 231 226 219 218 220 223 223 223 225 227 226 223 216 214 215 215 213 209 205 206 209 211 215 218 219 222 226 229 232 232 232 237 241 244
199 201 204 207 209 211 212 212 212 212 212 213 213 212 212 213 215 214 213 215 218 220 221 222 223 224 227 228 227 226 225 224 223 222 222 224 226 228 229 231 232 233 232 230 230 231 231 231 229 227 228 231 227 221 218 219 222 225 226 228 229 229 227 221 217 218 216 214 214 210 210 214 216 219 223 224 226 228 229 232 234 237 242 245 249
198 200 204 207 209 211 212 212 212 213 214 214 213 211 211 213 215 215 216 217 219 219 221 221 222 224 226 228 229 227 226 225 224 223 223 224 227 228 228 230 231 232 231 229 229 230 230 229 228 228 228 231 230 225 220 219 221 224 225 227 229 229 230 226 221 221 217 215 215 214 214 217 219 223 227 230 233 234 235 238 241 243 246 248 252
199 201 204 207 209 212 213 212 212 213 213 212 211 210 210 212 214 216 217 217 217 217 219 220 221 223 225 227 229 228 227 226 225 223 223 224 227 229 229 230 230 230 230 229 230 230 229 229 229 229 229 231 232 228 223 220 221 223 224 226 228 229 230 230 227 226 222 218 218 218 219 219 219 223 226 231 235 238 241 243 246 248 248 250 252
202 203 205 207 211 212 213 213 212 212 212 210 209 210 210 211 213 215 215 215 215 216 218 220 220 221 223 226 228 229 228 227 226 224 223 224 227 229 230 231 231 230 229 229 230 230 229 230 231 232 232 233 234 230 226 222 222 224 224 226 229 230 230 231 231 230 228 224 222 222 223 221 220 223 227 231 234 237 240 242 246 247 244 246 249
204 204 206 208 210 211 212 212 211 210 210 209 208 209 210 211 212 214 215 215 215 215 216 218 219 220 222 225 228 229 228 228 227 226 224 224 226 228 229 231 231 231 230 230 231 231 231 231 232 234 235 235 236 234 229 226 225 225 225 226 228 230 231 232 233 234 232 229 226 226 226 224 223 225 229 232 235 237 240 243 246 248 249 254 254
205 205 207 209 210 211 211 210 208 208 209 209 208 208 210 211 212 213 214 215 215 215 216 217 218 220 222 224 226 228 228 229 228 227 225 224 226 228 229 230 232 232 232 232 232 232 232 233 234 235 236 236 237 236 233 231 230 228 227 227 229 231 234 235 236 238 236 233 230 228 229 229 229 231 233 235 238 241 245 248 251 254 257 260 255
206 206 208 210 210 210 208 207 207 207 208 208 207 208 210 211 211 212 213 215 215 215 215 216 217 219 220 222 224 227 228 228 228 227 226 224 225 227 228 230 232 232 233 233 233 233 233 234 236 236 237 237 237 237 237 236 236 234 232 231 232 234 237 238 242 243 239 236 234 232 231 231 233 236 238 239 241 245 248 251 252 254 257 257 253
206 206 208 209 207 205 205 205 206 206 207 207 208 209 209 210 212 213 213 213 214 214 214 215 216 217 219 221 223 225 227 228 228 227 226 225 225 226 228 230 232 233 233 233 233 233 233 234 236 238 238 239 239 240 240 241 241 241 238 236 236 239 241 243 245 245 241 239 238 237 235 233 234 238 238 240 244 247 249 251 250 251 253 254 251
207 206 207 207 205 204 204 205 205 205 206 208 209 209 210 211 212 213 212 212 213 213 213 214 215 216 218 220 222 224 226 228 228 227 226 225 225 226 228 230 231 232 233 233 234 234 234 235 237 239 240 241 242 243 245 245 246 245 243 240 240 242 245 247 247 244 243 242 241 240 239 235 235 236 237 240 245 248 251 252 249 248 249 250 250
207 206 206 205 205 206 205 205 206 206 208 210 210 209 210 211 211 212 212 211 212 213 212 214 215 216 217 220 221 223 226 227 227 227 226 225 225 226 228 230 231 232 233 234 234 235 236 237 238 240 242 243 244 245 247 248 248 247 246 244 243 245 248 249 248 245 245 244 242 240 240 238 236 236 238 241 246 250 255 253 248 246 248 248 250
205 204 203 204 207 208 207 208 208 208 208 210 211 211 211 212 212 212 211 211 212 213 213 214 215 216 217 220 222 224 226 227 227 227 226 226 226 226 228 230 231 232 233 235 236 236 237 238 239 241 243 245 245 246 247 248 248 249 249 248 247 249 250 250 250 247 245 245 242 240 240 239 238 240 243 246 249 254 255 250 245 248 251 248 248
202 203 204 205 208 208 207 210 211 209 209 209 210 211 211 212 213 212 212 212 212 213 213 214 215 217 219 221 223 224 225 226 227 228 227 227 227 227 228 230 231 233 234 235 236 237 237 238 240 241 243 244 246 247 248 249 251 251 251 251 251 252 254 253 252 248 245 244 243 241 239 236 236 239 244 248 251 254 251 246 246 251 252 250 251
202 205 206 208 210 208 207 210 211 209 209 209 210 211 211 212 213 212 212 212 212 212 214 214 216 219 221 221 222 224 225 226 226 227 228 227 227 228 228 229 231 233 234 234 235 235 237 239 240 242 243 244 246 249 251 253 255 255 253 253 255 257 258 257 254 248 244 243 243 243 240 236 234 237 242 246 250 252 248 244 246 251 252 254 256
205 208 208 209 209 207 206 210 212 212 211 212 214 214 214 214 213 212 213 212 211 213 214 216 219 221 221 221 222 223 224 225 226 227 228 228 228 228 228 229 231 232 234 234 233 234 236 238 240 243 245 247 249 251 254 256 256 255 254 255 258 260 258 257 255 249 244 244 245 244 242 238 235 237 242 247 250 250 247 244 248 252 254 255 257
204 207 207 207 205 203 205 210 213 214 214 216 218 217 215 214 213 213 213 211 211 213 215 218 220 221 220 221 222 223 223 225 226 227 227 228 228 228 228 229 230 231 233 233 233 234 236 238 240 243 246 249 252 254 256 257 255 254 255 258 260 259 256 255 256 251 246 246 246 242 240 239 237 237 241 246 248 248 246 246 250 257 258 259 263
204 205 204 204 203 202 206 211 214 216 218 220 221 218 217 217 216 214 212 210 211 214 216 218 220 220 222 223 223 222 223 225 226 227 227 227 227 228 228 229 229 230 231 232 233 235 237 239 241 244 247 250 253 255 256 256 255 255 257 258 258 258 256 254 255 253 248 246 245 241 238 239 237 237 241 244 245 247 248 248 254 263 265 266 269
205 206 205 204 204 204 208 212 215 217 219 221 221 221 221 221 218 214 210 210 212 214 216 218 219 220 222 223 223 223 224 225 227 227 226 226 227 228 228 228 228 228 229 231 234 235 238 240 243 245 248 250 252 255 255 256 256 256 257 256 256 257 257 254 254 254 250 247 245 241 238 240 239 239 242 243 245 248 248 250 260 267 267 268 268
205 206 207 206 205 208 211 214 216 217 218 218 219 221 222 220 217 213 211 212 213 214 216 217 218 220 222 223 224 224 225 226 226 225 225 226 227 227 227 227 227 228 229 232 234 236 238 240 242 245 247 249 252 254 254 255 255 253 253 252 251 254 254 251 251 252 251 248 244 239 238 242 241 240 242 245 246 245 247 257 266 267 265 265 265
205 205 209 210 211 211 212 213 216 217 218 219 219 220 221 219 217 215 214 214 214 215 216 217 218 219 221 223 224 224 225 225 224 224 224 225 226 226 226 226 227 228 231 233 235 237 238 239 241 243 245 247 250 251 252 253 252 249 247 247 248 250 251 251 251 251 249 246 241 238 239 239 236 237 243 248 246 243 252 268 272 266 263 264 267
205 203 205 209 213 213 212 214 217 218 220 221 220 220 219 218 216 215 216 215 215 216 217 218 219 220 221 223 224 224 224 224 223 224 224 225 225 226 226 226 228 229 231 233 234 235 237 238 239 240 242 244 246 248 249 248 246 245 243 243 246 248 249 250 249 247 245 241 237 238 238 233 229 237 248 248 241 243 262 274 268 261 264 268 275
209 209 210 211 212 213 214 216 219 220 221 222 221 219 218 217 216 216 216 216 216 217 219 219 220 221 221 222 224 224 224 223 223 223 224 224 224 225 226 228 229 231 232 232 232 233 235 236 237 238 240 241 242 243 243 242 243 243 241 241 242 243 245 246 244 242 238 233 233 237 234 227 227 241 248 240 234 246 268 273 262 260 265 271 278
214 214 216 217 217 219 222 223 222 222 224 224 222 220 218 217 218 219 218 217 218 219 221 222 223 224 222 222 223 224 224 223 223 224 224 223 223 225 226 228 229 231 231 231 230 231 232 233 234 235 236 236 237 238 239 240 241 237 234 236 236 236 239 241 241 238 229 223 231 236 229 223 231 243 242 235 236 253 270 269 262 264 270 277 284
220 214 216 218 218 221 227 228 227 227 227 226 224 223 222 223 223 222 219 219 221 222 224 226 226 225 223 221 221 223 223 223 223 223 222 222 223 224 225 226 226 227 228 229 228 228 227 228 228 229 230 231 233 235 237 237 233 226 226 231 234 234 235 237 238 234 224 218 227 231 225 225 235 237 237 237 244 259 269 265 263 270 277 284 288
168 211 221 223 221 220 222 225 227 228 227 227 226 225 227 229 228 224 222 224 227 227 227 228 226 224 222 222 221 222 223 223 222 220 220 221 222 223 223 223 222 222 223 224 223 223 222 223 224 226 227 230 233 235 234 229 223 220 224 229 233 234 234 237 236 229 217 213 221 225 225 230 233 233 238 244 252 262 263 260 266 275 282 285 286
85 177 220 228 229 226 223 224 226 227 227 227 226 226 228 230 229 228 230 231 230 228 227 226 224 223 222 222 222 221 220 219 219 218 217 218 219 221 221 220 218 218 218 218 219 219 218 219 222 224 226 230 231 228 225 222 220 223 225 227 229 228 229 235 230 218 206 209 219 222 225 228 230 234 241 247 252 254 255 261 271 277 279 280 282
65 72 209 220 225 226 227 228 228 227 228 227 225 225 227 228 228 231 234 234 231 228 227 224 222 222 222 221 221 220 218 217 216 215 215 216 217 217 216 216 214 213 213 214 215 216 218 220 221 222 223 225 224 220 217 219 223 224 221 218 217 215 219 225 221 209 202 208 211 210 214 220 226 234 240 243 247 251 258 267 271 271 274 279 286
58 60 81 222 230 235 242 240 237 235 234 232 229 226 226 227 228 231 234 233 230 227 224 222 221 221 221 220 219 218 216 214 214 212 211 212 213 211 210 211 210 210 211 212 212 215 218 219 219 219 220 218 216 215 217 220 220 215 207 201 201 201 203 208 208 204 202 201 197 198 206 213 218 226 231 237 248 257 263 265 264 268 278 284 287
3 12 21 5 299 285 293 273 253 246 243 241 238 232 229 229 229 231 233 234 233 230 225 222 221 221 219 218 216 214 213 212 212 209 207 208 208 206 204 204 205 207 210 211 212 214 216 216 216 217 217 215 213 213 214 211 206 200 194 191 191 192 191 194 198 200 196 193 193 197 203 205 210 217 226 240 257 262 257 256 262 273 281 282 284
334 332 331 334 326 301 291 284 263 248 243 242 242 239 237 235 236 237 234 230 233 236 230 224 221 220 218 215 211 206 204 202 200 198 197 198 198 197 196 197 200 206 211 213 213 211 211 212 214 213 212 211 209 207 204 199 192 186 185 186 187 188 189 190 192 192 190 191 195 198 200 203 210 220 237 255 260 251 247 254 267 275 277 278 284
342 336 330 322 311 292 272 266 261 247 240 239 237 236 237 238 240 242 238 229 229 236 232 224 218 212 207 202 196 191 188 186 185 185 186 188 189 192 195 199 204 210 213 212 210 209 208 208 208 205 205 206 203 199 197 194 187 181 181 184 187 188 188 187 188 189 190 194 196 198 202 208 218 234 251 257 249 243 249 260 266 271 275 276 280
2 344 330 318 312 302 279 264 253 243 242 240 234 231 234 236 238 240 237 231 227 223 216 210 202 194 187 182 179 180 180 180 179 181 186 190 192 195 202 210 214 214 212 209 207 208 209 208 206 205 203 198 195 195 196 194 187 182 180 182 185 186 185 186 188 191 193 195 198 202 209 216 228 244 252 249 241 242 251 258 259 265 271 270 271
24 6 343 322 315 313 290 265 246 237 240 240 238 234 234 236 240 241 239 235 226 214 207 201 191 182 177 174 175 177 177 176 177 180 186 192 195 198 206 214 213 209 209 210 210 211 214 213 213 214 208 198 194 194 193 189 185 183 182 183 183 184 184 187 191 194 195 198 202 208 215 223 234 242 242 236 234 241 250 256 260 265 267 264 264
40 31 14 350 343 349 330 283 250 245 244 245 246 243 240 243 245 244 242 233 217 206 204 201 193 184 180 176 174 173 174 175 179 183 186 188 190 194 201 204 201 197 201 207 210 214 218 214 207 204 204 201 193 184 181 180 181 183 185 185 184 184 185 188 192 196 199 204 209 214 220 228 233 232 228 225 230 241 252 259 264 267 266 263 260
50 48 45 38 34 38 38 26 305 268 260 257 255 250 247 246 236 222 216 207 193 183 181 179 175 173 175 174 171 170 171 174 179 183 185 183 181 181 185 190 192 193 194 190 184 184 188 187 182 176 175 177 176 173 174 176 178 181 184 184 184 185 186 190 195 200 205 210 214 218 223 227 225 222 220 222 231 245 258 265 267 266 264 261 259